Home > Weather > Ansfelden > Past weeks

Flag for Austria Past Weather in Ansfelden, Upper Austria, Austria — Yesterday and Last 2 Weeks

Now
63 °F

Low clouds.


Feels Like: 63 °F
Forecast: 56 / 68 °F
Wind: 5 mph from East

Location: Linz / Hoersching-Flughafen

Current Time: May 29, 2016 at 9:46:34 AM

Latest Report: May 29, 2016 at 9:00 AM


Visibility: 5 mi

Pressure: 29.72 "Hg

Humidity: 94%

Dew Point: 61 °F

Location of AnsfeldenLocation

Past Weather in Ansfelden — Graph

°F

Ansfelden Temperature Yesterday

Maximum temperature yesterday: 80 °F (at 5:00 PM)
Minimum temperature yesterday: 58 °F (at 6:00 AM)
Average temperature yesterday: 69 °F

High & Low Weather Summary for the Past Weeks

 TemperatureHumidityPressure
High82 °F (May 22, 5:00 PM)100% (May 26, 7:00 AM)30.20 "Hg (May 26, 7:00 AM)
Low42 °F (May 16, 12:00 AM)29% (May 21, 7:00 PM)29.60 "Hg (May 14, 8:00 AM)
Average57 °F75%29.96 "Hg
* Reported May 14 8:00 AM — May 29 8:00 AM, Ansfelden, Weather by CustomWeather, © 2016

Note: Actual official high and low records may vary slightly from our data, if they occured in-between our weather recording intervals... More about our weather records

Advertising

Ansfelden Weather History for the Previous 24 Hours

Scroll right to see more
 ConditionsComfort  
Time TempWeatherWind HumidityBarometerVisibility
8:00 AM
Sun, May 29
63 °FPartly sunny.5 mph89%29.72 "Hg16 mi
7:00 AM61 °FPartly sunny.N/A98%29.75 "Hg2 mi
6:00 AM59 °FLight rain. Partly sunny.6 mph99%29.76 "Hg0 mi
5:00 AM57 °FPassing clouds.N/A99%29.78 "Hg2 mi
4:00 AM57 °FPassing clouds.N/A99%29.79 "Hg4 mi
3:00 AM56 °FLight rain. Passing clouds.N/A100%29.80 "Hg0 mi
2:00 AM59 °FPassing clouds.N/A98%29.78 "Hg2 mi
1:00 AM60 °FPassing clouds.N/A96%29.81 "Hg3 mi
12:00 AM61 °FOvercast.N/A95%29.85 "Hg6 mi
11:00 PM
Sat, May 28
61 °FOvercast.N/A96%29.86 "Hg7 mi
9:00 PM61 °FLow clouds.8 mph98%29.86 "Hg1 mi
8:00 PM77 °FPartly sunny.5 mph57%29.77 "Hg22 mi
7:00 PM79 °FPartly sunny.N/A51%29.76 "Hg25 mi
6:00 PM77 °FPartly sunny.N/A53%29.77 "Hg19 mi
5:00 PM80 °FPassing clouds.N/A46%29.78 "Hg17 mi
4:00 PM80 °FScattered clouds.N/A48%29.79 "Hg17 mi
3:00 PM78 °FScattered clouds.N/A54%29.82 "Hg16 mi
2:00 PM77 °FScattered clouds.N/A54%29.85 "Hg15 mi
1:00 PM74 °FScattered clouds.N/A62%29.87 "Hg14 mi
12:00 PM73 °FScattered clouds.N/A68%29.89 "Hg17 mi
Weather by CustomWeather, © 2016

See weather overviewHow to use our weather pages